IRIDIUM 33 DEB

Satellite information

Favourite Embed

Satellite Type and Status

DEBRISIN ORBIT

Key statistics

Satellite IRIDIUM 33 DEB at a glance.

Uptime

10275

Days in orbit

Revolutions

≈ 14.5

Per day

Orbit

LEO

Low Earth Orbit

Inclination

86.4

Latest

Satellite identification and parameters

Extended collection of information and parameters for IRIDIUM 33 DEB.

Object identification

Identified? True

Debris? True

Object name: IRIDIUM 33 DEB

International designator: 1997-051CB

Object number (NORAD): 33966

Object ID (CCSDS): 33966

Country: UNITED STATES OF AMERICA (US)

Current information (Y/N): Y

RCS size: SMALL

Orbital parameters

Period: 99.358 minutes

Inclination: 86.3915 deg

SMA: 7106.062 km

Apoapsis: 732.901 km

Periapsis: 722.952 km

RAAN: 63.9896 deg

Eccentricy: 0.0007

Argument of periapsis: 359.0199 deg

Mean anomaly: 120.2353 deg

Mean motion: 14.49303366 rev/day

Mean motion (dot): 0.00003401 rev/day2

B* drag term: 0.00088629 1/REarth

Two-line elements (TLE)

Creation date: Oct. 31, 2025, 10:56 p.m.

Reference frame: TEME

Reference center: EARTH

Epoch: Oct. 31, 2025, 8:39 p.m. UTC

TLE line 0: 0 IRIDIUM 33 DEB

TLE line 1: 1 33966U 97051CB 25304.86086322 .00003401 00000-0 88629-3 0 9992

TLE line 2: 2 33966 86.3915 63.9896 0007000 359.0199 120.2353 14.49303366878351

Live tracking on map

Real-time ground track for satellite IRIDIUM 33 DEB.

In-orbit conjunctions

A list of the most updated potential collisions computed for object IRIDIUM 33 DEB.

Target Orbit TCA Probability of collision Miss distance Type
NOAA 16 DEB SSO 2024-11-15 02:02:29 0.0004552588 678.0 (m) DEBRIS
CZ-4 DEB SSO 2024-11-09 15:35:16 0.0001604712 873.0 (m) DEBRIS
NOAA 16 DEB SSO 2024-10-05 01:05:58 0.0001258996 312.0 (m) DEBRIS

Associated space launch

Iridium provides global mobile telecommunications services using a constellation of 66 low earth orbit satellites in a 86.4° inclined orbit. Although 77 satellites were originally envisioned for the system and spawned the name based on the 77th element in the periodic table, the system has been scaled back. Motorola's Satellite Communications Group designed and manufactured the Iridium satellites with Lockheed Martin providing the LM-700A spacecraft buses.

IRIDIUM 33 DEB was lifted into orbit during the mission ‘Proton-K/17S40 | Iridium 27 to 33’, on board a Proton-K/17S40 space rocket.

The launch took place on Sept. 14, 1997, 1:36 a.m. from 81/23 (81L).

For more information about the launch, click the button.

Launch to space Proton-K/17S40 | Iridium 27 to 33
Proton-K/17S40 | Iridium 27 to 33

Agency: N/A

Status: Launch Successful

Launch date: Sept. 14, 1997, 1:36 a.m. UTC

Rocket: Proton-K/17S40

Launch pad: 81/23 (81L)

Location: Baikonur Cosmodrome, Republic of Kazakhstan

...

Latest news about this satellite

There are no fresh news available about this satellite. Check back as we update our databases every day.


Newsletter sign-up

Weekly statistics, charts and insights to help you stay on top of the space industry.